FW3814 Weather Reports


time (UTC)temp
C
wind
direction
speed
KPH
gust
KPH
rain 1hr
cm
rain 24hr
cm
rain mn
cm
humidity
%
barometer
mb
20260509043004 10 16 8.0 12.9 0.00 1.04 0.00 86 1015.2
20260509042504 10 18 8.0 8.0 0.00 1.04 0.00 86 1015.2
20260509042004 10 10 6.4 8.0 0.00 1.04 0.00 86 1015.2
20260509041525 10 3 6.4 6.4 0.00 1.04 0.00 85 1015.1
20260509041004 10 359 6.4 6.4 0.00 1.04 0.00 85 1015.0
20260509040504 10 356 6.4 6.4 0.00 1.04 0.00 84 1014.9
20260509040004 10 357 6.4 6.4 0.00 1.04 0.00 84 1014.9
20260509035504 10 4 4.8 6.4 0.00 1.04 0.00 84 1015.0
20260509035003 10 8 6.4 6.4 0.00 1.04 0.00 83 1015.0
20260509034525 10 11 6.4 8.0 0.00 1.04 0.00 83 1014.9
20260509034004 10 16 8.0 11.3 0.00 1.04 0.00 82 1014.8
20260509033504 10 19 9.7 11.3 0.00 1.04 0.00 82 1014.9
20260509033004 11 18 9.7 11.3 0.00 1.04 0.00 81 1015.0
20260509032504 11 16 9.7 12.9 0.00 1.04 0.00 81 1014.9
20260509032004 11 13 9.7 12.9 0.00 1.04 0.00 81 1015.0
20260509031504 11 8 8.0 11.3 0.00 1.04 0.00 81 1014.9
20260509031025 11 13 9.7 12.9 0.00 1.04 0.00 81 1015.0
20260509030504 11 11 8.0 12.9 0.00 1.04 0.00 81 1015.0
20260509030004 11 9 6.4 8.0 0.00 1.04 0.00 82 1015.2
20260509025504 11 20 6.4 8.0 0.00 1.04 0.00 82 1015.2
20260509025004 11 25 6.4 9.7 0.00 1.04 0.00 82 1015.1
20260509024504 11 28 8.0 12.9 0.00 1.04 0.00 83 1015.0
20260509024004 11 33 8.0 12.9 0.00 1.04 0.00 83 1015.0
20260509023504 11 25 6.4 8.0 0.00 1.04 0.00 83 1014.9
20260509023004 11 24 6.4 8.0 0.00 1.04 0.00 83 1014.7
20260509022504 11 23 6.4 8.0 0.00 1.04 0.00 83 1014.8
20260509022004 11 10 6.4 6.4 0.00 1.04 0.00 84 1014.8
20260509021504 11 14 6.4 11.3 0.00 1.04 0.00 84 1014.9
20260509021004 11 21 9.7 11.3 0.00 1.04 0.00 85 1014.9
20260509020525 11 18 11.3 12.9 0.00 1.04 0.00 86 1014.9
20260509020004 11 17 9.7 12.9 0.00 1.04 0.00 86 1015.2
20260509015504 11 14 9.7 11.3 0.00 1.04 0.00 86 1015.0
20260509015003 11 11 9.7 11.3 0.00 1.04 0.00 86 1015.3
20260509014524 11 14 8.0 9.7 0.00 1.04 0.00 86 1015.1
20260509014004 11 9 6.4 9.7 0.00 1.04 0.00 86 1015.2
20260509013504 11 5 6.4 8.0 0.00 1.04 0.00 85 1015.3
20260509013004 11 7 6.4 8.0 0.00 1.04 0.00 85 1015.3
20260509012504 11 9 4.8 6.4 0.00 1.04 0.00 85 1015.5
20260509012004 11 12 4.8 6.4 0.00 1.04 0.00 84 1015.2
20260509011524 11 13 4.8 6.4 0.00 1.04 0.00 84 1015.5
20260509011025 11 4 6.4 6.4 0.00 1.04 0.00 83 1015.5
20260509010504 11 3 6.4 6.4 0.00 1.04 0.00 83 1015.2
20260509010004 11 10 8.0 12.9 0.00 1.04 0.00 83 1015.5
20260509005524 11 15 9.7 12.9 0.00 1.04 0.00 82 1015.3
20260509005004 11 14 9.7 11.3 0.00 1.04 0.00 82 1015.2
20260509004503 12 11 8.0 9.7 0.00 1.04 0.00 82 1015.3
20260509004003 12 8 8.0 9.7 0.00 1.04 0.00 82 1015.3
20260509003503 12 9 8.0 8.0 0.00 1.04 0.00 79 1015.2
20260509003025 12 13 6.4 8.0 0.00 1.04 0.00 80 1015.5
20260509002504 12 12 8.0 9.7 0.00 1.04 0.00 80 1015.3
20260509002025 12 14 8.0 9.7 0.00 1.04 0.00 79 1015.3
20260509001504 12 10 4.8 6.4 0.00 1.04 0.00 79 1015.2
20260509001004 12 338 3.2 4.8 0.00 1.04 0.00 79 1015.2
20260509000504 12 352 4.8 6.4 0.00 1.04 0.00 79 1015.1
20260509000004 12 22 6.4 6.4 0.00 1.04 0.00 79 1015.3
20260508235524 12 18 6.4 8.0 0.00 1.04 0.00 79 1015.2
20260508235025 12 12 6.4 8.0 0.00 1.04 0.00 79 1015.2
20260508234503 12 11 8.0 8.0 0.00 1.04 0.00 80 1015.0
20260508234004 12 17 8.0 9.7 0.00 1.04 0.00 80 1015.1
20260508233504 12 20 8.0 9.7 0.00 1.04 0.00 80 1015.2
20260508233003 12 14 8.0 9.7 0.00 1.04 0.00 79 1015.1
20260508232504 12 11 8.0 8.0 0.00 1.04 0.00 79 1015.0
20260508232003 12 12 8.0 12.9 0.00 1.04 0.00 79 1015.2
20260508231003 12 15 9.7 12.9 0.00 1.04 0.00 80 1014.9
20260508230503 12 14 8.0 9.7 0.00 1.04 0.00 80 1015.0
20260508230003 12 12 8.0 9.7 0.00 1.04 0.00 80 1014.9
20260508225503 12 12 8.0 9.7 0.00 1.04 0.00 80 1015.1
20260508225003 12 14 6.4 9.7 0.00 1.04 0.00 80 1015.0
20260508224503 12 7 3.2 8.0 0.00 1.04 0.00 80 1015.2
20260508224003 12 6 1.6 3.2 0.00 1.04 0.00 80 1015.3
20260508223503 12 11 1.6 3.2 0.00 1.04 0.00 79 1015.2
20260508223003 12 17 0.0 3.2 0.00 1.04 0.00 79 1015.2
20260508222503 12 18 0.0 3.2 0.00 1.04 0.00 79 1015.2
20260508222003 12 21 1.6 4.8 0.00 1.04 0.00 80 1015.2
20260508221503 13 19 3.2 4.8 0.00 1.04 0.00 80 1015.2
20260508221003 13 19 3.2 4.8 0.00 1.04 0.00 80 1015.3
20260508220503 13 22 3.2 4.8 0.00 1.04 0.00 81 1015.1
20260508220003 13 21 1.6 4.8 0.00 1.04 0.00 81 1015.2
20260508215503 13 19 1.6 3.2 0.00 1.04 1.04 80 1015.0
20260508215003 12 19 0.0 3.2 0.00 1.04 1.04 80 1015.1
20260508214503 12 360 0.0 1.6 0.00 1.04 1.04 80 1015.1
20260508214024 12 22 0.0 1.6 0.00 1.04 1.04 80 1015.0
20260508213503 12 19 0.0 1.6 0.00 1.04 1.04 80 1015.1
20260508213003 12 17 0.0 1.6 0.00 1.04 1.04 80 1015.1
20260508212503 13 351 1.6 3.2 0.00 1.04 1.04 80 1015.2
20260508212003 13 3 3.2 4.8 0.00 1.04 1.04 79 1015.0
20260508211503 13 7 4.8 6.4 0.00 1.04 1.04 79 1015.0
20260508211003 13 359 4.8 6.4 0.00 1.04 1.04 79 1015.1
20260508210524 13 1 4.8 6.4 0.00 1.04 1.04 79 1015.0
20260508210024 13 8 3.2 6.4 0.00 1.04 1.04 80 1015.0
20260508205503 13 0 0.0 0.0 0.00 1.04 1.04 79 1015.1
20260508205024 13 0 0.0 0.0 0.00 1.04 1.04 78 1014.9
20260508204503 13 0 0.0 0.0 0.00 1.04 1.04 78 1014.9
20260508204003 13 0 0.0 0.0 0.00 1.04 1.04 78 1014.9
20260508203503 13 0 0.0 0.0 0.00 1.04 1.04 78 1014.9
20260508203003 13 0 0.0 0.0 0.00 1.04 1.04 79 1014.9
20260508202503 13 0 0.0 0.0 0.00 1.04 1.04 78 1014.9
20260508202003 13 0 0.0 0.0 0.00 1.04 1.04 78 1015.0
20260508201503 13 0 0.0 0.0 0.00 1.04 1.04 78 1014.9
20260508201003 13 0 0.0 0.0 0.00 1.04 1.04 78 1014.9
20260508200503 13 0 0.0 0.0 0.00 1.04 1.04 78 1014.9
20260508200003 13 0 0.0 0.0 0.00 1.04 1.04 78 1014.8
20260508195503 13 0 0.0 0.0 0.00 1.04 1.04 77 1014.8
20260508195003 13 0 0.0 0.0 0.00 1.04 1.04 77 1014.7
20260508194524 13 0 0.0 0.0 0.00 1.04 1.04 77 1014.8
20260508194003 13 0 0.0 0.0 0.00 1.04 1.04 76 1014.6
20260508193503 13 0 0.0 0.0 0.00 1.04 1.04 76 1014.6
20260508193003 14 0 0.0 0.0 0.00 1.04 1.04 76 1014.4
20260508192524 14 0 0.0 0.0 0.00 1.04 1.04 77 1014.5
20260508192024 14 0 0.0 0.0 0.00 1.04 1.04 77 1014.3
20260508191503 14 0 0.0 0.0 0.00 1.04 1.04 76 1014.2
20260508191024 14 0 0.0 0.0 0.00 1.04 1.04 77 1014.2
20260508190503 15 0 0.0 0.0 0.00 1.04 1.04 78 1014.2
20260508190024 15 0 0.0 0.0 0.00 1.04 1.04 78 1014.0
20260508185503 15 0 0.0 0.0 0.00 1.04 1.04 78 1013.9
20260508185003 15 0 0.0 0.0 0.00 1.04 1.04 78 1013.9
20260508184504 15 0 0.0 0.0 0.00 1.04 1.04 79 1013.9
20260508184024 15 0 0.0 0.0 0.00 1.04 1.04 79 1013.9
20260508183503 15 0 0.0 0.0 0.00 1.04 1.04 78 1013.7
20260508183024 15 0 0.0 0.0 0.00 1.04 1.04 77 1013.7
20260508182503 16 0 0.0 0.0 0.00 1.04 1.04 76 1013.7
20260508182003 16 0 0.0 0.0 0.00 1.04 1.04 76 1013.7
20260508181503 16 0 0.0 0.0 0.00 1.04 1.04 76 1013.6
20260508181003 16 0 0.0 0.0 0.00 1.04 1.04 76 1013.8
20260508180503 16 0 0.0 0.0 0.00 1.04 1.04 76 1013.7
20260508180003 16 360 0.0 1.6 0.00 1.04 1.04 76 1013.9
20260508175503 16 360 0.0 1.6 0.00 1.04 1.04 77 1013.8
20260508175003 16 360 0.0 1.6 0.00 1.04 1.04 77 1013.6
20260508174503 16 0 0.0 0.0 0.00 1.04 1.04 77 1013.7
20260508174003 16 0 0.0 0.0 0.00 1.04 1.04 77 1013.8
20260508173503 16 0 0.0 0.0 0.00 1.04 1.04 76 1013.6
20260508173003 16 0 0.0 0.0 0.00 1.04 1.04 77 1013.7
20260508172503 16 0 0.0 0.0 0.00 1.04 1.04 77 1013.8
20260508172003 16 0 0.0 0.0 0.00 1.04 1.04 77 1013.7
20260508171503 16 0 0.0 0.0 0.00 1.04 1.04 77 1013.6
20260508171003 16 0 0.0 0.0 0.00 1.04 1.04 78 1013.6
20260508170503 16 0 0.0 0.0 0.00 1.04 1.04 78 1013.7
20260508170003 16 0 0.0 0.0 0.00 1.04 1.04 78 1013.6
20260508165524 16 0 0.0 0.0 0.00 1.04 1.04 78 1013.7
20260508165024 16 0 0.0 0.0 0.00 1.04 1.04 77 1013.5
20260508164524 16 0 0.0 0.0 0.00 1.04 1.04 77 1013.6
20260508164024 16 0 0.0 0.0 0.00 1.04 1.04 77 1013.8
20260508163503 16 0 0.0 0.0 0.00 1.04 1.04 77 1013.6
20260508163003 16 0 0.0 0.0 0.00 1.04 1.04 77 1013.6
20260508162503 16 0 0.0 0.0 0.00 1.04 1.04 77 1013.5
20260508162024 16 0 0.0 0.0 0.00 1.04 1.04 78 1013.4
20260508161503 16 67 0.0 1.6 0.00 1.04 1.04 79 1013.6
20260508161024 15 67 0.0 1.6 0.03 1.04 1.04 80 1013.6
20260508160503 15 0 0.0 0.0 0.03 1.04 1.04 80 1013.6
20260508160024 15 9 0.0 3.2 0.05 1.04 1.04 80 1013.6
20260508155524 15 11 1.6 3.2 0.10 1.04 1.04 80 1013.5
20260508155024 15 13 0.0 3.2 0.13 1.04 1.04 80 1013.5
20260508154524 15 341 1.6 3.2 0.15 1.04 1.04 79 1013.8
20260508154003 14 359 3.2 6.4 0.18 1.04 1.04 79 1013.6
20260508153503 14 1 4.8 6.4 0.18 1.04 1.04 78 1013.8
20260508153003 14 7 4.8 6.4 0.20 1.04 1.04 78 1013.9
20260508152503 14 25 6.4 8.0 0.23 1.04 1.04 78 1013.9
20260508152024 13 33 6.4 8.0 0.23 1.04 1.04 77 1014.1
20260508151503 13 45 6.4 9.7 0.28 1.04 1.04 77 1014.1
20260508151003 13 32 4.8 9.7 0.30 1.02 1.02 76 1014.2
20260508150503 13 19 8.0 12.9 0.33 1.02 1.02 76 1014.0
20260508150003 13 10 8.0 12.9 0.46 0.99 0.99 76 1013.9
20260508145503 13 355 6.4 9.7 0.79 0.97 0.97 76 1014.0
20260508145024 13 355 4.8 6.4 0.81 0.94 0.94 76 1014.0
20260508144503 13 359 3.2 6.4 0.81 0.89 0.89 76 1014.0
20260508144003 13 330 1.6 6.4 0.79 0.86 0.86 76 1013.9
20260508143503 13 331 3.2 6.4 0.81 0.86 0.86 75 1014.0
20260508143003 13 344 1.6 6.4 0.79 0.84 0.84 75 1014.0
20260508142524 13 341 1.6 6.4 0.81 0.81 0.81 74 1014.1
20260508142003 13 340 3.2 6.4 0.81 0.81 0.81 74 1014.2
20260508141503 13 330 6.4 8.0 0.79 0.79 0.79 73 1014.1
20260508141003 14 320 6.4 11.3 0.71 0.71 0.71 72 1014.4
20260508140503 14 321 11.3 17.7 0.69 0.69 0.69 71 1014.3
20260508140003 15 323 8.0 17.7 0.53 0.53 0.53 70 1014.4
20260508135503 16 328 3.2 8.0 0.18 0.18 0.18 70 1014.3
20260508135003 16 344 4.8 14.5 0.13 0.13 0.13 69 1014.2
20260508134503 16 346 3.2 14.5 0.10 0.10 0.10 68 1013.9
20260508134003 17 325 1.6 4.8 0.10 0.10 0.10 62 1013.9
20260508133503 17 317 1.6 4.8 0.05 0.05 0.05 61 1014.0
20260508133003 18 329 1.6 3.2 0.05 0.05 0.05 60 1013.9
20260508132503 18 298 3.2 11.3 0.00 0.00 0.00 59 1014.0
20260508132003 18 274 6.4 11.3 0.00 0.00 0.00 57 1014.2
20260508131503 18 263 3.2 11.3 0.00 0.00 0.00 56 1014.1
20260508131003 19 117 1.6 8.0 0.00 0.00 0.00 56 1014.0
20260508130503 19 233 6.4 11.3 0.00 0.00 0.00 55 1014.1
20260508130003 19 252 9.7 12.9 0.00 0.00 0.00 55 1014.2
20260508125524 19 253 8.0 12.9 0.00 0.00 0.00 54 1014.2
20260508125003 19 225 3.2 12.9 0.00 0.00 0.00 54 1014.2
20260508124524 19 193 4.8 8.0 0.00 0.00 0.00 54 1014.0
20260508124024 19 160 4.8 8.0 0.00 0.00 0.00 54 1014.0
20260508123503 20 8 4.8 8.0 0.00 0.00 0.00 54 1014.2
20260508123003 20 244 6.4 12.9 0.00 0.00 0.00 55 1014.1
20260508122503 20 211 8.0 12.9 0.00 0.00 0.00 55 1014.0
20260508122003 20 192 4.8 11.3 0.00 0.00 0.00 56 1014.0
20260508121503 19 217 4.8 8.0 0.00 0.00 0.00 57 1014.2
20260508121003 19 229 6.4 9.7 0.00 0.00 0.00 56 1014.1
20260508120503 19 184 8.0 11.3 0.00 0.00 0.00 56 1014.1
20260508120003 19 186 9.7 11.3 0.00 0.00 0.00 56 1014.2
20260508115508 19 226 11.3 17.7 0.00 0.00 0.00 56 1014.2
20260508115003 19 246 11.3 17.7 0.00 0.00 0.00 56 1014.4
20260508114503 19 195 9.7 17.7 0.00 0.00 0.00 56 1014.2
20260508114024 18 138 8.0 12.9 0.00 0.00 0.00 56 1014.4
20260508113503 18 130 9.7 12.9 0.00 0.00 0.00 57 1014.4
20260508113003 18 170 8.0 12.9 0.00 0.00 0.00 56 1014.3
20260508112503 19 219 9.7 16.1 0.00 0.00 0.00 57 1014.5
20260508112003 19 205 11.3 16.1 0.00 0.00 0.00 57 1014.6
20260508111503 19 218 8.0 12.9 0.00 0.00 0.00 58 1014.4
20260508111003 19 286 4.8 9.7 0.00 0.00 0.00 58 1014.6
20260508110524 19 270 4.8 8.0 0.00 0.00 0.00 58 1014.6
20260508110003 19 181 6.4 8.0 0.00 0.00 0.00 58 1014.5
20260508105503 19 197 6.4 12.9 0.00 0.00 0.00 58 1014.6
20260508105003 19 217 8.0 12.9 0.00 0.00 0.00 59 1014.7
20260508104503 19 208 6.4 9.7 0.00 0.00 0.00 59 1014.7
20260508104024 19 170 8.0 14.5 0.00 0.00 0.00 60 1014.7
20260508103503 18 204 9.7 14.5 0.00 0.00 0.00 59 1014.7
20260508103003 18 211 8.0 14.5 0.00 0.00 0.00 60 1014.7
20260508102524 18 202 9.7 14.5 0.00 0.00 0.00 60 1014.9
20260508102003 18 215 6.4 14.5 0.00 0.00 0.00 61 1014.8
20260508101503 18 59 3.2 6.4 0.00 0.00 0.00 61 1014.9
20260508101003 18 139 6.4 12.9 0.00 0.00 0.00 60 1014.8
20260508100503 18 181 9.7 12.9 0.00 0.00 0.00 60 1014.8
20260508100003 18 203 8.0 12.9 0.00 0.00 0.00 61 1014.9
20260508095503 18 243 6.4 9.7 0.00 0.00 0.00 61 1014.9
20260508095003 18 263 8.0 12.9 0.00 0.00 0.00 61 1014.8
20260508094503 18 221 9.7 12.9 0.00 0.00 0.00 61 1014.8
20260508094003 18 208 9.7 12.9 0.00 0.00 0.00 61 1014.9
20260508093503 18 252 8.0 12.9 0.00 0.00 0.00 61 1014.8
20260508093003 17 261 8.0 9.7 0.00 0.00 0.00 62 1014.8
20260508092524 17 226 9.7 12.9 0.00 0.00 0.00 61 1014.9
20260508092003 17 197 11.3 12.9 0.00 0.00 0.00 61 1014.8
20260508091503 17 173 11.3 12.9 0.00 0.00 0.00 62 1014.8
20260508091024 17 116 11.3 12.9 0.00 0.00 0.00 62 1014.8
20260508090503 17 96 9.7 11.3 0.00 0.00 0.00 65 1014.9
20260508090024 17 127 9.7 12.9 0.00 0.00 0.00 65 1014.7
20260508085503 17 133 11.3 12.9 0.00 0.00 0.00 65 1014.9
20260508085003 16 152 9.7 12.9 0.00 0.00 0.00 65 1014.9
20260508084503 16 177 9.7 12.9 0.00 0.00 0.00 65 1014.8
20260508084003 16 195 8.0 12.9 0.00 0.00 0.00 66 1014.8
20260508083503 16 179 8.0 12.9 0.00 0.00 0.00 66 1014.7
20260508083003 16 184 11.3 14.5 0.00 0.00 0.00 66 1014.8
20260508082503 16 217 11.3 14.5 0.00 0.00 0.00 66 1014.8
20260508082003 16 219 9.7 12.9 0.00 0.00 0.00 67 1014.6
20260508081503 16 206 9.7 12.9 0.00 0.00 0.00 67 1014.8
20260508081003 17 219 6.4 12.9 0.00 0.00 0.00 68 1014.7
20260508080503 17 281 3.2 4.8 0.00 0.00 0.00 69 1014.6
20260508080024 17 317 3.2 6.4 0.00 0.00 0.00 69 1014.8
20260508075503 16 219 3.2 6.4 0.00 0.00 0.00 69 1014.6
20260508075024 16 252 4.8 6.4 0.00 0.00 0.00 69 1014.6
20260508074524 16 289 3.2 6.4 0.00 0.00 0.00 70 1014.6
20260508074003 17 330 1.6 4.8 0.00 0.00 0.00 70 1014.5
20260508073503 16 350 3.2 4.8 0.00 0.00 0.00 70 1014.4
20260508073003 16 1 3.2 4.8 0.00 0.00 0.00 71 1014.5
20260508072503 16 352 3.2 3.2 0.00 0.00 0.00 72 1014.4
20260508072003 16 333 3.2 4.8 0.00 0.00 0.00 72 1014.4
20260508071503 15 340 3.2 4.8 0.00 0.00 0.00 72 1014.4
20260508071024 15 356 4.8 4.8 0.00 0.00 0.00 72 1014.4
20260508070503 15 358 3.2 4.8 0.00 0.00 0.00 74 1014.4
20260508070003 15 330 1.6 4.8 0.00 0.00 0.00 74 1014.3
20260508065503 15 326 3.2 6.4 0.00 0.00 0.00 74 1014.2
20260508065003 14 322 1.6 6.4 0.00 0.00 0.00 75 1014.1
20260508064503 14 336 1.6 6.4 0.00 0.00 0.00 75 1014.2
20260508064003 13 341 0.0 3.2 0.00 0.00 0.00 76 1014.1
20260508063524 13 360 0.0 3.2 0.00 0.00 0.00 76 1014.1
20260508063003 13 3 1.6 3.2 0.00 0.00 0.00 75 1014.1
20260508062503 13 7 3.2 6.4 0.00 0.00 0.00 75 1014.0
20260508062003 13 15 4.8 6.4 0.00 0.00 0.00 76 1014.0
20260508061503 13 15 4.8 6.4 0.00 0.00 0.00 76 1013.9
20260508061003 13 6 4.8 6.4 0.00 0.00 0.00 76 1013.9
20260508060503 13 6 4.8 6.4 0.00 0.00 0.00 77 1013.9
20260508060003 13 4 4.8 6.4 0.00 0.00 0.00 77 1013.9
20260508055503 12 360 4.8 6.4 0.00 0.00 0.00 77 1013.8
20260508055024 12 5 4.8 6.4 0.00 0.00 0.00 77 1013.7
20260508054503 12 17 4.8 8.0 0.00 0.00 0.00 77 1013.8
20260508054003 12 11 4.8 8.0 0.00 0.00 0.00 78 1013.7
20260508053503 12 9 6.4 9.7 0.00 0.00 0.00 78 1013.6
20260508053003 12 14 8.0 9.7 0.00 0.00 0.00 78 1013.6
20260508052503 12 9 6.4 9.7 0.00 0.00 0.00 78 1013.6
20260508052024 12 5 6.4 8.0 0.00 0.00 0.00 78 1013.5
20260508051503 12 356 8.0 8.0 0.00 0.00 0.00 78 1013.4
20260508051003 12 332 6.4 8.0 0.00 0.00 0.00 80 1013.4
20260508050524 12 343 6.4 8.0 0.00 0.00 0.00 80 1013.2
20260508050003 12 6 8.0 8.0 0.00 0.00 0.00 80 1013.2
20260508045503 11 3 8.0 8.0 0.00 0.00 0.00 80 1013.3
20260508045018 11 2 6.4 8.0 0.00 0.00 0.00 80 1013.2
20260508044503 11 10 8.0 9.7 0.00 0.00 0.00 80 1013.2
20260508044003 11 16 8.0 9.7 0.00 0.00 0.00 80 1013.2
20260508043503 11 14 8.0 9.7 0.00 0.00 0.00 79 1013.1